Location: Blériot-Plage
(50.9575°N, 1.8224°E)
Time: 16:13:29
(UTC+00:00)

Tsikada Rocket - Pass Details

Date: 15 May 2026
Orbit: 956 x 1009 km, 82.9° (Epoch: 10 June)

Event Time Altitude Azimuth Distance (km) Brightness Sun altitude
Rises 20:36:38 0° 348° (NNW) 3,659 8.1 -8.3°
Reaches altitude 10° 20:39:10 10° 346° (NNW) 2,704 7.4 -8.6°
Maximum altitude 20:45:17 68° 265° (W) 1,028 4.3 -9.3°
Drops below altitude 10° 20:51:21 10° 184° (S) 2,683 5.9 -9.9°
Enters shadow 20:53:28 - 182° (S) 3,484 6.5 -10.1°
